Terminal Aerodrome Forecast
Issued by NWS

Home | Current Version | Previous Version | Text Only | Print | Product List | Glossary On
Versions: 1 2 3 4 5 6 7 8 9 10 11 12 13 14 15 16 17 18 19 20 21
000
FTUS46 KPDT 271000 AAA
TAFPSC
TAF AMD
KPSC 271003Z 2710/2806 35003KT 5SM BR OVC005
     FM271400 36003KT 1/2SM FG OVC002
     FM271900 29003KT 3SM BR BKN005
     FM280000 22005KT 5SM BR BKN015
     FM280300 24005KT P6SM SCT015 OVC040=

USA.gov is the U.S. government's official web portal to all federal, state and local government web resources and services.